• Em Portugal
  • Lista de países
  • Para 7 dias
  • Temperatura da água
  • Mapas de satélite
  • Mapa do tempo
  • Widgets de tempo
  • user-avatar
    Iniciar Sessão

    Previsão horária em Seredichi

    Hoje, 18 Julho, Quarta-feira

    Tempo Temperatura Precipitação Vento Pressão Humidade
    00:00 +20°C° 0,2 mm 3 m/s 732 mmHg 97%
    01:00 +19°C° 0,2 mm 3 m/s 732 mmHg 97%
    02:00 +19°C° 0,2 mm 3 m/s 732 mmHg 98%
    03:00 +19°C° 0 mm 3 m/s 732 mmHg 97%
    04:00 +20°C° 0 mm 4 m/s 732 mmHg 97%
    05:00 +20°C° 0 mm 4 m/s 732 mmHg 97%
    06:00 +20°C° 0 mm 4 m/s 732 mmHg 96%
    07:00 +20°C° 0 mm 4 m/s 732 mmHg 94%
    08:00 +20°C° 0 mm 5 m/s 732 mmHg 93%
    09:00 +21°C° 0,1 mm 5 m/s 732 mmHg 92%
    10:00 +21°C° 0,1 mm 5 m/s 732 mmHg 91%
    11:00 +21°C° 0,1 mm 5 m/s 732 mmHg 90%
    12:00 +22°C° 0,4 mm 5 m/s 731 mmHg 89%
    13:00 +22°C° 0,4 mm 6 m/s 731 mmHg 87%
    14:00 +23°C° 0,4 mm 6 m/s 731 mmHg 86%
    15:00 +22°C° 0,3 mm 5 m/s 731 mmHg 86%
    16:00 +22°C° 0,3 mm 5 m/s 731 mmHg 87%
    17:00 +22°C° 0,3 mm 5 m/s 731 mmHg 87%
    18:00 +21°C° 0,1 mm 4 m/s 731 mmHg 89%
    19:00 +21°C° 0,1 mm 3 m/s 731 mmHg 91%
    20:00 +20°C° 0,1 mm 3 m/s 731 mmHg 93%
    21:00 +19°C° 0,1 mm 3 m/s 730 mmHg 94%
    22:00 +19°C° 0,1 mm 3 m/s 730 mmHg 95%
    23:00 +19°C° 0,1 mm 3 m/s 730 mmHg 96%

    Amanhã, 19 Julho, Quinta-feira

    Tempo Temperatura Precipitação Vento Pressão Humidade
    00:00 +19°C° 0,1 mm 3 m/s 730 mmHg 97%
    01:00 +19°C° 0,1 mm 3 m/s 730 mmHg 97%
    02:00 +18°C° 0,1 mm 3 m/s 730 mmHg 98%
    03:00 +19°C° 0,3 mm 3 m/s 730 mmHg 97%
    04:00 +19°C° 0,3 mm 3 m/s 730 mmHg 97%
    05:00 +19°C° 0,3 mm 3 m/s 730 mmHg 97%
    06:00 +19°C° 0,4 mm 3 m/s 730 mmHg 97%
    07:00 +19°C° 0,4 mm 3 m/s 730 mmHg 96%
    08:00 +20°C° 0,4 mm 3 m/s 730 mmHg 96%
    09:00 +20°C° 0,2 mm 3 m/s 731 mmHg 93%
    10:00 +21°C° 0,2 mm 2 m/s 731 mmHg 90%
    11:00 +23°C° 0,2 mm 2 m/s 731 mmHg 88%
    12:00 +24°C° 0,6 mm 2 m/s 731 mmHg 85%
    13:00 +25°C° 0,6 mm 3 m/s 731 mmHg 82%
    14:00 +25°C° 0,6 mm 3 m/s 731 mmHg 79%
    15:00 +25°C° 1,2 mm 2 m/s 731 mmHg 80%
    16:00 +25°C° 1,2 mm 2 m/s 731 mmHg 81%
    17:00 +25°C° 1,2 mm 2 m/s 731 mmHg 82%
    18:00 +24°C° 0,1 mm 2 m/s 731 mmHg 86%
    19:00 +23°C° 0,1 mm 1 m/s 731 mmHg 90%
    20:00 +21°C° 0,1 mm 1 m/s 731 mmHg 94%
    21:00 +21°C° 0 mm 1 m/s 731 mmHg 94%
    22:00 +21°C° 0 mm 1 m/s 732 mmHg 95%
    23:00 +20°C° 0 mm 1 m/s 732 mmHg 96%

    Depois de amanhã, 20 Julho, Sexta-feira

    Tempo Temperatura Precipitação Vento Pressão Humidade
    00:00 +20°C° 0 mm 1 m/s 732 mmHg 96%
    01:00 +20°C° 0 mm 1 m/s 732 mmHg 96%
    02:00 +19°C° 0 mm 1 m/s 732 mmHg 97%
    03:00 +20°C° 0 mm 1 m/s 732 mmHg 97%
    04:00 +20°C° 0 mm 1 m/s 733 mmHg 97%
    05:00 +20°C° 0 mm 1 m/s 733 mmHg 97%
    06:00 +20°C° 0 mm 2 m/s 733 mmHg 93%
    07:00 +23°C° 0 mm 2 m/s 733 mmHg 89%
    08:00 +24°C° 0 mm 2 m/s 733 mmHg 84%
    09:00 +25°C° 0,3 mm 2 m/s 733 mmHg 80%
    10:00 +26°C° 0,3 mm 2 m/s 734 mmHg 76%
    11:00 +27°C° 0,3 mm 2 m/s 734 mmHg 71%
    12:00 +27°C° 1,6 mm 2 m/s 733 mmHg 73%
    13:00 +27°C° 1,6 mm 1 m/s 733 mmHg 75%
    14:00 +27°C° 1,6 mm 1 m/s 733 mmHg 77%
    15:00 +27°C° 1,4 mm 1 m/s 733 mmHg 80%
    16:00 +26°C° 1,4 mm 1 m/s 733 mmHg 83%
    17:00 +26°C° 1,4 mm 1 m/s 733 mmHg 87%
    18:00 +25°C° 0,3 mm 1 m/s 733 mmHg 89%
    19:00 +23°C° 0,3 mm 1 m/s 733 mmHg 91%
    20:00 +22°C° 0,3 mm 1 m/s 733 mmHg 93%
    21:00 +22°C° 0 mm 1 m/s 733 mmHg 93%
    22:00 +21°C° 0 mm 1 m/s 733 mmHg 94%
    23:00 +20°C° 0 mm 2 m/s 733 mmHg 95%

    21 Julho, Sábado

    Tempo Temperatura Precipitação Vento Pressão Humidade
    00:00 +19°C° 0 mm 2 m/s 733 mmHg 95%
    01:00 +19°C° 0 mm 2 m/s 733 mmHg 95%
    02:00 +19°C° 0 mm 2 m/s 733 mmHg 96%
    03:00 +19°C° 0 mm 2 m/s 734 mmHg 96%
    04:00 +19°C° 0 mm 2 m/s 734 mmHg 96%
    05:00 +19°C° 0 mm 2 m/s 734 mmHg 96%
    06:00 +20°C° 0 mm 2 m/s 734 mmHg 93%
    07:00 +23°C° 0 mm 2 m/s 734 mmHg 89%
    08:00 +24°C° 0 mm 3 m/s 734 mmHg 86%
    09:00 +25°C° 0,1 mm 3 m/s 734 mmHg 81%
    10:00 +26°C° 0,1 mm 3 m/s 734 mmHg 76%
    11:00 +28°C° 0,1 mm 3 m/s 734 mmHg 71%
    12:00 +28°C° 0,4 mm 3 m/s 734 mmHg 71%
    13:00 +28°C° 0,4 mm 4 m/s 734 mmHg 71%
    14:00 +28°C° 0,4 mm 4 m/s 734 mmHg 71%
    15:00 +28°C° 0,4 mm 3 m/s 734 mmHg 73%
    16:00 +28°C° 0,4 mm 3 m/s 734 mmHg 74%
    17:00 +27°C° 0,4 mm 3 m/s 734 mmHg 76%
    18:00 +26°C° 0,3 mm 3 m/s 734 mmHg 81%
    19:00 +25°C° 0,3 mm 3 m/s 734 mmHg 86%
    20:00 +23°C° 0,3 mm 2 m/s 734 mmHg 91%
    21:00 +23°C° 1,6 mm 2 m/s 734 mmHg 92%
    22:00 +21°C° 1,6 mm 2 m/s 734 mmHg 93%
    23:00 +21°C° 1,6 mm 2 m/s 734 mmHg 94%

    22 Julho, Domingo

    Tempo Temperatura Precipitação Vento Pressão Humidade
    00:00 +20°C° 0,1 mm 2 m/s 733 mmHg 95%
    01:00 +20°C° 0,1 mm 2 m/s 733 mmHg 95%
    02:00 +20°C° 0,1 mm 2 m/s 733 mmHg 96%
    03:00 +20°C° 0 mm 2 m/s 733 mmHg 96%
    04:00 +20°C° 0 mm 2 m/s 733 mmHg 96%
    05:00 +20°C° 0 mm 3 m/s 734 mmHg 96%
    06:00 +21°C° 0,2 mm 3 m/s 734 mmHg 93%
    07:00 +22°C° 0,2 mm 3 m/s 734 mmHg 89%
    08:00 +25°C° 0,2 mm 3 m/s 734 mmHg 86%
    09:00 +26°C° 0,7 mm 3 m/s 733 mmHg 82%
    10:00 +27°C° 0,7 mm 4 m/s 733 mmHg 78%
    11:00 +28°C° 0,7 mm 4 m/s 733 mmHg 74%
    12:00 +28°C° 0,6 mm 4 m/s 733 mmHg 73%
    13:00 +28°C° 0,6 mm 3 m/s 733 mmHg 72%
    14:00 +29°C° 0,6 mm 3 m/s 733 mmHg 71%
    15:00 +28°C° 1,2 mm 3 m/s 733 mmHg 75%
    16:00 +28°C° 1,2 mm 3 m/s 733 mmHg 78%
    17:00 +27°C° 1,2 mm 3 m/s 733 mmHg 82%
    18:00 +26°C° 0,2 mm 3 m/s 733 mmHg 86%
    19:00 +25°C° 0,2 mm 2 m/s 733 mmHg 90%
    20:00 +24°C° 0,2 mm 2 m/s 733 mmHg 93%
    21:00 +23°C° 0 mm 2 m/s 733 mmHg 94%
    22:00 +21°C° 0 mm 2 m/s 733 mmHg 95%
    23:00 +21°C° 0 mm 2 m/s 733 mmHg 96%

    23 Julho, Segunda-feira

    Tempo Temperatura Precipitação Vento Pressão Humidade
    00:00 +21°C° 0 mm 2 m/s 733 mmHg 96%
    01:00 +20°C° 0 mm 2 m/s 733 mmHg 96%
    02:00 +21°C° 0 mm 1 m/s 734 mmHg 97%
    03:00 +21°C° 0 mm 1 m/s 734 mmHg 97%
    04:00 +21°C° 0 mm 1 m/s 734 mmHg 97%
    05:00 +21°C° 0 mm 1 m/s 734 mmHg 97%
    06:00 +21°C° 0 mm 2 m/s 734 mmHg 93%
    07:00 +23°C° 0 mm 2 m/s 734 mmHg 90%
    08:00 +25°C° 0 mm 2 m/s 735 mmHg 86%
    09:00 +26°C° 0 mm 2 m/s 735 mmHg 81%
    10:00 +27°C° 0 mm 2 m/s 735 mmHg 76%
    11:00 +28°C° 0 mm 3 m/s 735 mmHg 71%
    12:00 +28°C° 0 mm 2 m/s 735 mmHg 71%
    13:00 +28°C° 0 mm 2 m/s 735 mmHg 71%
    14:00 +28°C° 0 mm 2 m/s 735 mmHg 71%
    15:00 +27°C° 0,4 mm 2 m/s 735 mmHg 73%
    16:00 +27°C° 0,4 mm 2 m/s 735 mmHg 76%
    17:00 +27°C° 0,4 mm 2 m/s 735 mmHg 78%
    18:00 +25°C° 0,4 mm 2 m/s 736 mmHg 83%
    19:00 +24°C° 0,4 mm 2 m/s 736 mmHg 88%
    20:00 +23°C° 0,4 mm 2 m/s 736 mmHg 93%
    21:00 +21°C° 0,1 mm 2 m/s 736 mmHg 94%
    22:00 +20°C° 0,1 mm 3 m/s 736 mmHg 95%
    23:00 +20°C° 0,1 mm 3 m/s 737 mmHg 97%
    Mostrar mais